Yakima, WA
on Sunday, November 4, 2012

Sunday
Previous Day Next Day
Daily Summary
 ActualAverageRecord
Temperature
Mean Temperature °F 42°F  
Max Temperature 63°F 54°F 69°F (2007)
Min Temperature 43°F 29°F 10°F (2002)
Degree Days
Heating Degree Days 12 23  
Month to date heating degree days 58 91  
Since 1 July heating degree days 595 795  
Cooling Degree Days 0 0  
Month to date cooling degree days 0 0  
Year to date cooling degree days 667 472  
Growing Degree Days3 (Base °F )  
Moisture
Dew Point 46°F   
Average Humidity 77    
Maximum Humidity 93    
Minimum Humidity 60    
Precipitation
Precipitation 0.00 in 0.03 in 0.41 in (2008)
Month to date precipitation 0.06 0.11  
Year to date precipitation 6.59 5.78  
Snow
Snow 0.00 in 0.00 in 1.80 in (1973)
Month to date snowfall 0.0 0.0  
Year to date snowfall 21.5 8.7  
Since 1 July snowfall 0.0 0.1  
Snow Depth 0.00 in   
Wind
Wind Speed 2 mph   
Max Wind Speed 8 mph   
Max Gust Speed 14 mph   
Visibility 8 miles   
Events     

Key: T is trace of precipitation, MM is missing value
Source: NWS Daily Summary
Time(PST)TemperatureDew PointHumidity Pressure Visibility Wind DirectionWind SpeedGust SpeedPrecipitationEvents Conditions
12:53 AM 48.9°F 46.0°F 90% 30.19 in 4.0 miles WNW 5.8 mph - N/A   Mostly Cloudy
1:53 AM 46.0°F 43.0°F 89% 30.21 in 4.0 miles WNW 4.6 mph - N/A   Partly Cloudy
1:53 AM 44.1°F 41.0°F 89% 30.21 in 3.0 miles WNW 4.6 mph - N/A   Clear
2:53 AM 44.1°F 42.1°F 93% 30.23 in 6.0 miles Calm Calm - N/A   Mostly Cloudy
3:53 AM 43.0°F 39.9°F 89% 30.23 in 7.0 miles NW 3.5 mph - N/A   Partly Cloudy
4:53 AM 46.0°F 43.0°F 89% 30.25 in 8.0 miles Calm Calm - N/A   Overcast
5:53 AM 45.0°F 42.1°F 90% 30.26 in 7.0 miles Calm Calm - N/A   Overcast
6:53 AM 45.0°F 42.1°F 90% 30.28 in 7.0 miles Calm Calm - N/A   Overcast
7:53 AM 46.0°F 43.0°F 89% 30.30 in 7.0 miles Calm Calm - N/A   Partly Cloudy
8:53 AM 51.1°F 46.9°F 86% 30.30 in 10.0 miles Calm Calm - N/A   Clear
9:53 AM 52.0°F 46.9°F 83% 30.30 in 5.0 miles East 3.5 mph - N/A   Haze
10:53 AM 53.1°F 46.9°F 80% 30.29 in 9.0 miles Calm Calm - N/A   Clear
11:53 AM 55.0°F 46.9°F 74% 30.28 in 10.0 miles Calm Calm - N/A   Partly Cloudy
12:53 PM 60.1°F 48.9°F 67% 30.28 in 10.0 miles Calm Calm - N/A   Partly Cloudy
1:53 PM 62.1°F 48.9°F 62% 30.27 in 10.0 miles WNW 3.5 mph - N/A   Partly Cloudy
2:53 PM 62.1°F 50.0°F 65% 30.28 in 10.0 miles Calm Calm - N/A   Partly Cloudy
3:53 PM 62.1°F 50.0°F 65% 30.27 in 10.0 miles Calm Calm - N/A   Partly Cloudy
4:53 PM 57.9°F 50.0°F 75% 30.27 in 10.0 miles Calm Calm - N/A   Partly Cloudy
5:53 PM 54.0°F 48.0°F 80% 30.28 in 10.0 miles Calm Calm - N/A   Clear
6:53 PM 53.1°F 48.0°F 83% 30.28 in 10.0 miles Calm Calm - N/A   Clear
7:53 PM 52.0°F 48.0°F 86% 30.27 in 10.0 miles Calm Calm - N/A   Clear
8:53 PM 51.1°F 46.9°F 86% 30.28 in 8.0 miles WSW 3.5 mph - N/A   Clear
9:53 PM 48.9°F 46.0°F 90% 30.29 in 9.0 miles WNW 8.1 mph - N/A   Clear
10:53 PM 50.0°F 46.9°F 89% 30.28 in 10.0 miles NW 5.8 mph - N/A   Clear
Moon Phase
Nov. 04 Nov. 06 Nov. 13 Nov. 20 Nov. 28
Sunrise:06:49 AM (PST) Moon Rise:09:22 PM (PST)11/4
Sunset:04:41 PM (PST) Moon Set:11:39 AM (PST)11/4

Copyright © 2014 The Weather Underground, Inc.